Forside
METAR-TAF:

METAR-TAF

Lufthavne :

Cairo Regional Airport

Cairo, Illinois, USA

Breddekreds: 37-03-52N, længdekreds: 089-13-10W, højde: 98 m

Aktuelle vejr

Denne rapport blev lavet for 26 minutter siden, kl. 01:35 UTC
Vind 10 kt fra syd med vindstød på up til 18 kt
Temperatur 15°C
Fugtighed 94%
Tryk 1002 hPa
Sigt: 16.1 km
skyfri

METAR: KCIR 240135Z AUTO 18010G18KT 10SM CLR 15/14 A2960 RMK AO2 T01500143

Tid: 20:01 (02:01 UTC)


TAF: fraværende

Vejrobservationer og prognoser fra mere end 4000 lufthavne (METAR og TAF).

De gule og røde prikker repræsenterer de meteorologiske stationer.

Flyt musen over at se navnet på stationen.

Så klik over at se vejr observationer og prognoser.

At skifte det kort: Klik på de grønne knapper med et sort kors for at zoome ind; på den grønne knap med en bindestreg for at zoome ud; eller på de grønne pile for tilstødende kort.


METAR-TAF: